Weather History for KBFW - March, 2014

Change the Weather History Date:

Wednesday, March 19, 2014

  Actual Average Record
Temperature  
Mean Temperature 28 °F -  
Max Temperature 35 °F 33 °F 71 °F (2012)
Min Temperature 21 °F 12 °F 8 °F (1999)
Degree Days  
Heating Degree Days 37    
Moisture  
Dew Point 21 °F    
Average Humidity 79    
Maximum Humidity 93    
Minimum Humidity 60    
Precipitation  
Precipitation 0.00 in - - ()
Sea Level Pressure  
Sea Level Pressure 29.80 in    
Wind  
Wind Speed 5 mph (NNW)    
Max Wind Speed 8 mph    
Max Gust Speed -    
Visibility 9 miles    
Events Snow    
Averages and records for this station are not official NWS values.
T = Trace of Precipitation, MM = Missing Value Source: NWS Daily Summary

Daily Weather History Graph

Daily Weather History Graph

Search for Another Location

Airport or City:

Trip Planner

Search our weather history database for the weather conditions in past years. The results will help you decide how hot, cold, wet, or windy it might be!

Date:

Astronomy

Mar. 19, 2014 Rise Set
Actual Time 7:10 AM CDT 7:17 PM CDT
Civil Twilight 6:40 AM CDT 7:47 PM CDT
Nautical Twilight 6:04 AM CDT 8:23 PM CDT
Astronomical Twilight 5:27 AM CDT 9:00 PM CDT
Moon 10:50 PM CDT (3/19) 8:24 AM CDT (3/19)
Length of Visible Light 13h 07m
Length of Day
12h 06m
Waning Gibbous, 91% of the Moon is Illuminated
Mar 19
Waning Gibbous
Mar 23
Last Quarter
Mar 30
New
Apr 7
First Quarter
Apr 15
Full

Hourly Weather History & Observations

Time (CDT) Temp. Windchill Dew Point Humidity Pressure Visibility Wind Dir Wind Speed Gust Speed Precip Events Conditions
12:13 AM 23.0 °F 14.7 °F 21.2 °F 93% 29.85 in 4.0 mi NNE 6.9 mph - N/A Snow Light Snow
12:33 AM 23.0 °F 14.7 °F 21.2 °F 93% 29.85 in 5.0 mi North 6.9 mph - N/A Snow Light Snow
12:53 AM 23.0 °F 15.8 °F 21.2 °F 93% 29.84 in 7.0 mi NNE 5.8 mph - N/A   Scattered Clouds
1:13 AM 23.0 °F 15.8 °F 21.2 °F 93% 29.83 in 10.0 mi NNE 5.8 mph - N/A   Clear
1:33 AM 24.8 °F 16.9 °F 21.2 °F 86% 29.82 in 10.0 mi NNE 6.9 mph - N/A   Clear
1:53 AM 24.8 °F 16.9 °F 21.2 °F 86% 29.82 in 10.0 mi North 6.9 mph - N/A   Clear
2:13 AM 24.8 °F 16.9 °F 21.2 °F 86% 29.82 in 10.0 mi North 6.9 mph - N/A   Clear
2:33 AM 24.8 °F 19.1 °F 21.2 °F 86% 29.82 in 10.0 mi North 4.6 mph - N/A   Clear
2:53 AM 24.8 °F 20.5 °F 21.2 °F 86% 29.81 in 10.0 mi North 3.5 mph - N/A   Clear
3:13 AM 24.8 °F 19.1 °F 21.2 °F 86% 29.80 in 10.0 mi North 4.6 mph - N/A   Clear
3:33 AM 24.8 °F 19.1 °F 21.2 °F 86% 29.80 in 7.0 mi North 4.6 mph - N/A Snow Light Snow
3:53 AM 24.8 °F 20.5 °F 21.2 °F 86% 29.79 in 5.0 mi North 3.5 mph - N/A Snow Light Snow
4:13 AM 23.0 °F - 21.2 °F 93% 29.79 in 2.5 mi Calm Calm - N/A Snow Light Snow
4:33 AM 23.0 °F 18.4 °F 21.2 °F 93% 29.79 in 2.5 mi NNW 3.5 mph - N/A Snow Light Snow
4:53 AM 23.0 °F 18.4 °F 21.2 °F 93% 29.79 in 3.0 mi NNW 3.5 mph - N/A Snow Light Snow
5:13 AM 23.0 °F 18.4 °F 21.2 °F 93% 29.79 in 3.0 mi NNW 3.5 mph - N/A Snow Light Snow
5:33 AM 23.0 °F 18.4 °F 21.2 °F 93% 29.79 in 7.0 mi NNW 3.5 mph - N/A Snow Light Snow
5:53 AM 21.2 °F 16.4 °F 19.4 °F 93% 29.79 in 7.0 mi NW 3.5 mph - N/A Snow Light Snow
6:13 AM 21.2 °F 14.9 °F 19.4 °F 93% 29.78 in 10.0 mi NNW 4.6 mph - N/A   Scattered Clouds
6:33 AM 21.2 °F 14.9 °F 19.4 °F 93% 29.78 in 10.0 mi NW 4.6 mph - N/A   Scattered Clouds
6:53 AM 21.2 °F 14.9 °F 19.4 °F 93% 29.78 in 10.0 mi NNW 4.6 mph - N/A   Clear
7:13 AM 21.2 °F 14.9 °F 19.4 °F 93% 29.78 in 10.0 mi NW 4.6 mph - N/A   Clear
7:33 AM 21.2 °F 14.9 °F 19.4 °F 93% 29.78 in 10.0 mi NW 4.6 mph - N/A   Clear
7:53 AM 21.2 °F 14.9 °F 19.4 °F 93% 29.78 in 10.0 mi NNW 4.6 mph - N/A   Scattered Clouds
8:13 AM 21.2 °F 16.4 °F 19.4 °F 93% 29.78 in 10.0 mi NNW 3.5 mph - N/A   Scattered Clouds
8:33 AM 23.0 °F - 19.4 °F 86% 29.79 in 10.0 mi Calm Calm - N/A   Clear
8:53 AM 23.0 °F 17.0 °F 19.4 °F 86% 29.79 in 10.0 mi NNW 4.6 mph - N/A   Clear
9:13 AM 23.0 °F 18.4 °F 19.4 °F 86% 29.79 in 10.0 mi NNW 3.5 mph - N/A   Clear
9:33 AM 23.0 °F 18.4 °F 19.4 °F 86% 29.79 in 10.0 mi NNW 3.5 mph - N/A   Clear
9:53 AM 24.8 °F 17.9 °F 21.2 °F 86% 29.79 in 7.0 mi NNW 5.8 mph - N/A   Scattered Clouds
10:13 AM 24.8 °F 16.9 °F 21.2 °F 86% 29.79 in 7.0 mi North 6.9 mph - N/A Snow Light Snow
10:33 AM 24.8 °F 19.1 °F 21.2 °F 86% 29.79 in 7.0 mi North 4.6 mph - N/A Snow Light Snow
10:53 AM 24.8 °F 16.9 °F 21.2 °F 86% 29.79 in 7.0 mi NNW 6.9 mph - N/A Snow Light Snow
11:13 AM 26.6 °F 19.1 °F 21.2 °F 80% 29.78 in 7.0 mi NNW 6.9 mph - N/A Snow Light Snow
11:33 AM 26.6 °F 21.2 °F 21.2 °F 80% 29.79 in 10.0 mi NNW 4.6 mph - N/A   Clear
11:53 AM 28.4 °F 22.2 °F 21.2 °F 74% 29.78 in 10.0 mi North 5.8 mph - N/A   Clear
12:13 PM 28.4 °F 22.2 °F 21.2 °F 74% 29.78 in 10.0 mi NW 5.8 mph - N/A   Clear
12:33 PM 30.2 °F 23.4 °F 21.2 °F 69% 29.78 in 10.0 mi NNW 6.9 mph - N/A   Clear
12:53 PM 30.2 °F 23.4 °F 23.0 °F 75% 29.78 in 10.0 mi NW 6.9 mph - N/A   Clear
1:13 PM 32.0 °F 26.4 °F 23.0 °F 69% 29.78 in 10.0 mi NNW 5.8 mph - N/A   Clear
1:33 PM 33.8 °F 29.6 °F 24.8 °F 70% 29.77 in 10.0 mi WNW 4.6 mph - N/A   Clear
1:53 PM 33.8 °F 27.7 °F 23.0 °F 65% 29.77 in 10.0 mi NW 6.9 mph - N/A   Clear
2:13 PM 33.8 °F 27.0 °F 24.8 °F 70% 29.77 in 10.0 mi NNW 8.1 mph - N/A   Clear
2:33 PM 35.6 °F 29.9 °F 23.0 °F 60% 29.76 in 10.0 mi NNW 6.9 mph - N/A   Clear
2:53 PM 35.6 °F 29.2 °F 23.0 °F 60% 29.77 in 10.0 mi NW 8.1 mph - N/A   Clear
3:13 PM 33.8 °F 27.0 °F 23.0 °F 65% 29.77 in 10.0 mi NW 8.1 mph - N/A   Clear
3:33 PM 33.8 °F 28.6 °F 23.0 °F 65% 29.77 in 10.0 mi NNW 5.8 mph - N/A   Clear
3:53 PM 33.8 °F 29.6 °F 23.0 °F 65% 29.77 in 10.0 mi NW 4.6 mph - N/A   Clear
4:13 PM 33.8 °F 27.0 °F 23.0 °F 65% 29.77 in 10.0 mi NW 8.1 mph - N/A   Clear
4:33 PM 33.8 °F 29.6 °F 21.2 °F 60% 29.77 in 10.0 mi NNW 4.6 mph - N/A   Clear
4:53 PM 33.8 °F 27.7 °F 21.2 °F 60% 29.78 in 10.0 mi WNW 6.9 mph - N/A   Clear
5:13 PM 33.8 °F 28.6 °F 21.2 °F 60% 29.79 in 10.0 mi WNW 5.8 mph - N/A   Clear
5:33 PM 33.8 °F 29.6 °F 21.2 °F 60% 29.79 in 10.0 mi WNW 4.6 mph - N/A   Clear
5:53 PM 32.0 °F 27.5 °F 21.2 °F 64% 29.80 in 10.0 mi NW 4.6 mph - N/A   Clear
6:13 PM 32.0 °F 28.7 °F 21.2 °F 64% 29.81 in 10.0 mi WNW 3.5 mph - N/A   Clear
6:33 PM 32.0 °F 27.5 °F 21.2 °F 64% 29.82 in 10.0 mi WNW 4.6 mph - N/A   Clear
6:53 PM 30.2 °F 25.4 °F 19.4 °F 64% 29.82 in 10.0 mi WNW 4.6 mph - N/A   Scattered Clouds
7:13 PM 30.2 °F 23.4 °F 19.4 °F 64% 29.83 in 10.0 mi NW 6.9 mph - N/A   Clear
7:33 PM 30.2 °F 23.4 °F 19.4 °F 64% 29.83 in 10.0 mi NW 6.9 mph - N/A   Clear
7:53 PM 30.2 °F 25.4 °F 19.4 °F 64% 29.84 in 10.0 mi WNW 4.6 mph - N/A   Clear
8:13 PM 30.2 °F 25.4 °F 19.4 °F 64% 29.84 in 10.0 mi WNW 4.6 mph - N/A   Clear
8:33 PM 30.2 °F 25.4 °F 21.2 °F 69% 29.85 in 10.0 mi WNW 4.6 mph - N/A   Clear
8:53 PM 30.2 °F - 21.2 °F 69% 29.85 in 10.0 mi Calm Calm - N/A   Clear
9:13 PM 30.2 °F 26.7 °F 21.2 °F 69% 29.85 in 10.0 mi WNW 3.5 mph - N/A   Clear
9:33 PM 28.4 °F - 23.0 °F 80% 29.85 in 10.0 mi Calm Calm - N/A   Clear
9:53 PM 28.4 °F - 23.0 °F 80% 29.86 in 10.0 mi Calm Calm - N/A   Clear
10:13 PM 28.4 °F - 24.8 °F 86% 29.86 in 10.0 mi Calm Calm - N/A   Clear
10:33 PM 28.4 °F 24.6 °F 24.8 °F 86% 29.86 in 10.0 mi WNW 3.5 mph - N/A   Clear
10:53 PM 28.4 °F - 24.8 °F 86% 29.87 in - Calm Calm - N/A   Clear
11:14 PM 28.4 °F - 24.8 °F 86% 29.87 in 10.0 mi Calm Calm - N/A   Clear
11:33 PM 28.4 °F 24.6 °F 24.8 °F 86% 29.87 in 10.0 mi West 3.5 mph - N/A Snow Light Snow
11:53 PM 28.4 °F 23.3 °F 23.0 °F 80% 29.87 in 10.0 mi WNW 4.6 mph - N/A Snow Light Snow